,,Stat6,,Stat2,,Stat8,,Stat9,,Stat10,,Wind1,,Wind1,
time,status,PA1M_AVG,status,PR1M_SUM,status,RH1M_AVG,status,SR1M_AVG,status,TA1M_AVG,status,W1dAve1m,status,W1sAve1m,
2008-11-01, 00:00:00,VALID,918.599,VALID,0,VALID,100,VALID,-0.0169808,VALID,19.8753,VALID,20,VALID,0.0359003,
2008-11-01, 00:01:00,VALID,918.589,VALID,0,VALID,100,VALID,-0.0339617,VALID,19.8486,VALID,10,VALID,0,
2008-11-01, 00:02:00,VALID,918.567,VALID,0.2,VALID,100,VALID,-0.0169808,VALID,19.8291,VALID,8,VALID,0.00101902,
2008-11-01, 00:03:00,VALID,918.52,VALID,0,VALID,100,VALID,-0.0339617,VALID,19.8131,VALID,30,VALID,0,
2008-11-01, 00:04:00,VALID,918.465,VALID,0,VALID,100,VALID,-0.0169808,VALID,19.8169,VALID,29,VALID,0.00142045,
2008-11-01, 00:05:00,VALID,918.412,VALID,0,VALID,100,VALID,-0.0169808,VALID,19.8431,VALID,31,VALID,0.0604539,
2008-11-01, 00:06:00,VALID,918.377,VALID,0,VALID,100,VALID,0,VALID,19.8261,VALID,31,VALID,0,
2008-11-01, 00:07:00,VALID,918.353,VALID,0,VALID,100,VALID,-0.0339617,VALID,19.8528,VALID,31,VALID,0,
2008-11-01, 00:08:00,VALID,918.325,VALID,0,VALID,100,VALID,-0.0169808,VALID,19.8723,VALID,31,VALID,0,
2008-11-01, 00:09:00,VALID,918.314,VALID,0,VALID,100,VALID,-0.0339617,VALID,19.8558,VALID,31,VALID,0,
2008-11-01, 00:10:00,VALID,918.276,VALID,0,VALID,100,VALID,-0.0169808,VALID,19.8423,VALID,31,VALID,0,
2008-11-01, 00:11:00,VALID,918.245,VALID,0,VALID,100,VALID,0,VALID,19.8521,VALID,31,VALID,0,
2008-11-01, 00:12:00,VALID,918.232,VALID,0,VALID,100,VALID,0,VALID,19.8688,VALID,26,VALID,0,
2008-11-01, 00:13:00,VALID,918.221,VALID,0,VALID,100,VALID,0,VALID,19.8648,VALID,21,VALID,0.206321,
2008-11-01, 00:14:00,VALID,918.199,VALID,0,VALID,100,VALID,0,VALID,19.8486,VALID,294,VALID,0.0537574,
2008-11-01, 00:15:00,VALID,918.208,VALID,0,VALID,100,VALID,0,VALID,19.8223,VALID,277,VALID,0,
2008-11-01, 00:16:00,VALID,918.215,VALID,0,VALID,100,VALID,0,VALID,19.8291,VALID,1,VALID,0.244721,
2008-11-01, 00:17:00,VALID,918.208,VALID,0,VALID,100,VALID,0.0169808,VALID,19.8458,VALID,7,VALID,0,
2008-11-01, 00:18:00,VALID,918.196,VALID,0,VALID,100,VALID,0.0169808,VALID,19.8261,VALID,34,VALID,0.4133,
2008-11-01, 00:19:00,VALID,918.198,VALID,0,VALID,100,VALID,-0.0169808,VALID,19.8061,VALID,24,VALID,0.0655887,
2008-11-01, 00:20:00,VALID,918.215,VALID,0,VALID,100,VALID,0,VALID,19.8096,VALID,24,VALID,0,
2008-11-01, 00:21:00,VALID,918.239,VALID,0,VALID,100,VALID,-0.0169808,VALID,19.7964,VALID,21,VALID,0,
2008-11-01, 00:22:00,VALID,918.242,VALID,0,VALID,100,VALID,0,VALID,19.8004,VALID,17,VALID,0,
2008-11-01, 00:23:00,VALID,918.247,VALID,0,VALID,100,VALID,0,VALID,19.8291,VALID,21,VALID,0,
2008-11-01, 00:24:00,VALID,918.247,VALID,0,VALID,100,VALID,0,VALID,19.8421,VALID,22,VALID,0,
2008-11-01, 00:25:00,VALID,918.238,VALID,0,VALID,100,VALID,-0.0339617,VALID,19.8164,VALID,22,VALID,0,
2008-11-01, 00:26:00,VALID,918.206,VALID,0,VALID,100,VALID,-0.0169808,VALID,19.8064,VALID,22,VALID,0,
2008-11-01, 00:27:00,VALID,918.184,VALID,0,VALID,100,VALID,-0.0339617,VALID,19.7969,VALID,22,VALID,0,
2008-11-01, 00:28:00,VALID,918.169,VALID,0,VALID,100,VALID,-0.0169808,VALID,19.7674,VALID,16,VALID,0.0439453,
2008-11-01, 00:29:00,VALID,918.153,VALID,0,VALID,100,VALID,0,VALID,19.7934,VALID,11,VALID,0,
2008-11-01, 00:30:00,VALID,918.155,VALID,0,VALID,100,VALID,0,VALID,19.8159,VALID,40,VALID,0.0012718,
2008-11-01, 00:31:00,VALID,918.154,VALID,0,VALID,100,VALID,0,VALID,19.8323,VALID,46,VALID,0.0338542,
2008-11-01, 00:32:00,VALID,918.135,VALID,0,VALID,100,VALID,0,VALID,19.8291,VALID,3,VALID,0.00400152,
2008-11-01, 00:33:00,VALID,918.125,VALID,0,VALID,100,VALID,0.0169808,VALID,19.8161,VALID,3,VALID,0,
2008-11-01, 00:34:00,VALID,918.13,VALID,0,VALID,100,VALID,-0.0509425,VALID,19.8229,VALID,3,VALID,0,
2008-11-01, 00:35:00,VALID,918.133,VALID,0,VALID,100,VALID,-0.101885,VALID,19.8401,VALID,3,VALID,0,
2008-11-01, 00:36:00,VALID,918.123,VALID,0,VALID,100,VALID,-0.0679233,VALID,19.8825,VALID,14,VALID,0.273056,
2008-11-01, 00:37:00,VALID,918.113,VALID,0,VALID,100,VALID,-0.101885,VALID,19.876,VALID,21,VALID,0.668713,
2008-11-01, 00:38:00,VALID,918.098,VALID,0,VALID,100,VALID,-0.101885,VALID,19.8955,VALID,27,VALID,0.261052,
2008-11-01, 00:39:00,VALID,918.085,VALID,0,VALID,100,VALID,-0.101885,VALID,19.902,VALID,18,VALID,0.281822,
2008-11-01, 00:40:00,VALID,918.079,VALID,0,VALID,100,VALID,-0.0849042,VALID,19.8888,VALID,9,VALID,0.94798,
2008-11-01, 00:41:00,VALID,918.084,VALID,0,VALID,100,VALID,-0.0679233,VALID,19.8663,VALID,6,VALID,0.875182,
2008-11-01, 00:42:00,VALID,918.063,VALID,0,VALID,100,VALID,-0.101885,VALID,19.8436,VALID,18,VALID,1.00073,
2008-11-01, 00:43:00,VALID,918.056,VALID,0,VALID,100,VALID,-0.101885,VALID,19.8241,VALID,7,VALID,0.95367,
2008-11-01, 00:44:00,VALID,918.034,VALID,0,VALID,100,VALID,-0.101885,VALID,19.8076,VALID,17,VALID,0.549826,
2008-11-01, 00:45:00,VALID,918.005,VALID,0,VALID,100,VALID,-0.101885,VALID,19.8144,VALID,26,VALID,0.287946,
2008-11-01, 00:46:00,VALID,917.985,VALID,0,VALID,100,VALID,-0.101885,VALID,19.8174,VALID,21,VALID,0.224609,
2008-11-01, 00:47:00,VALID,917.961,VALID,0,VALID,100,VALID,-0.0849042,VALID,19.8368,VALID,25,VALID,0.293501,
2008-11-01, 00:48:00,VALID,917.945,VALID,0,VALID,100,VALID,-0.101885,VALID,19.8341,VALID,28,VALID,0,
2008-11-01, 00:49:00,VALID,917.938,VALID,0,VALID,100,VALID,-0.101885,VALID,19.8076,VALID,35,VALID,0.0426829,
2008-11-01, 00:50:00,VALID,917.918,VALID,0,VALID,100,VALID,-0.118866,VALID,19.7949,VALID,24,VALID,0,
2008-11-01, 00:51:00,VALID,917.913,VALID,0.2,VALID,100,VALID,-0.0849042,VALID,19.7919,VALID,17,VALID,0.0138081,
2008-11-01, 00:52:00,VALID,917.924,VALID,0,VALID,100,VALID,-0.0849042,VALID,19.7754,VALID,2,VALID,0.275977,
2008-11-01, 00:53:00,VALID,917.917,VALID,0,VALID,100,VALID,-0.118866,VALID,19.752,VALID,4,VALID,0.831845,
2008-11-01, 00:54:00,VALID,917.921,VALID,0,VALID,100,VALID,-0.101885,VALID,19.7432,VALID,32,VALID,0.739258,
2008-11-01, 00:55:00,VALID,917.933,VALID,0,VALID,100,VALID,-0.101885,VALID,19.7694,VALID,8,VALID,0.475074,
2008-11-01, 00:56:00,VALID,917.917,VALID,0,VALID,100,VALID,-0.118866,VALID,19.7465,VALID,16,VALID,1.05684,
2008-11-01, 00:57:00,VALID,917.914,VALID,0,VALID,100,VALID,-0.101885,VALID,19.7335,VALID,11,VALID,0.14375,
2008-11-01, 00:58:00,VALID,917.911,VALID,0,VALID,100,VALID,-0.101885,VALID,19.7332,VALID,16,VALID,0.276708,
2008-11-01, 00:59:00,VALID,917.901,VALID,0,VALID,100,VALID,-0.101885,VALID,19.7073,VALID,14,VALID,0.574491,
2008-11-01, 01:00:00,VALID,917.904,VALID,0,VALID,100,VALID,-0.101885,VALID,19.7008,VALID,13,VALID,0.773247,
2008-11-01, 01:01:00,VALID,917.888,VALID,0,VALID,100,VALID,-0.0849042,VALID,19.701,VALID,19,VALID,1.11919,
2008-11-01, 01:02:00,VALID,917.892,VALID,0,VALID,100,VALID,-0.101885,VALID,19.6878,VALID,6,VALID,0.194568,
2008-11-01, 01:03:00,VALID,917.887,VALID,0,VALID,100,VALID,-0.101885,VALID,19.6913,VALID,7,VALID,0.579723,
2008-11-01, 01:04:00,VALID,917.885,VALID,0,VALID,100,VALID,-0.0679233,VALID,19.6519,VALID,31,VALID,0.801417,
2008-11-01, 01:05:00,VALID,917.86,VALID,0,VALID,100,VALID,0,VALID,19.6412,VALID,25,VALID,0.115039,
2008-11-01, 01:06:00,VALID,917.84,VALID,0,VALID,100,VALID,0,VALID,19.6342,VALID,353,VALID,1.09259,
2008-11-01, 01:07:00,VALID,917.811,VALID,0,VALID,100,VALID,0,VALID,19.6317,VALID,11,VALID,1.1612,
2008-11-01, 01:08:00,VALID,917.78,VALID,0,VALID,100,VALID,-0.0169808,VALID,19.602,VALID,22,VALID,1.41425,
2008-11-01, 01:09:00,VALID,917.776,VALID,0,VALID,100,VALID,0,VALID,19.6147,VALID,16,VALID,0.76456,
2008-11-01, 01:10:00,VALID,917.776,VALID,0,VALID,100,VALID,0,VALID,19.6085,VALID,11,VALID,0.325817,
2008-11-01, 01:11:00,VALID,917.765,VALID,0,VALID,100,VALID,-0.0169808,VALID,19.592,VALID,11,VALID,0.667411,
2008-11-01, 01:12:00,VALID,917.777,VALID,0,VALID,100,VALID,-0.0169808,VALID,19.5793,VALID,10,VALID,0.614099,
2008-11-01, 01:13:00,VALID,917.784,VALID,0,VALID,100,VALID,0,VALID,19.5825,VALID,6,VALID,0.192951,
2008-11-01, 01:14:00,VALID,917.781,VALID,0,VALID,100,VALID,0,VALID,19.5827,VALID,5,VALID,0,
2008-11-01, 01:15:00,VALID,917.792,VALID,0,VALID,100,VALID,0.0169808,VALID,19.5857,VALID,5,VALID,0,
2008-11-01, 01:16:00,VALID,917.792,VALID,0,VALID,100,VALID,0.0169808,VALID,19.6052,VALID,5,VALID,0,
2008-11-01, 01:17:00,VALID,917.808,VALID,0,VALID,100,VALID,0,VALID,19.6212,VALID,360,VALID,0,
2008-11-01, 01:18:00,VALID,917.82,VALID,0,VALID,100,VALID,0,VALID,19.6052,VALID,341,VALID,0,
2008-11-01, 01:19:00,VALID,917.839,VALID,0,VALID,100,VALID,-0.0339617,VALID,19.6022,VALID,338,VALID,0,
2008-11-01, 01:20:00,VALID,917.852,VALID,0,VALID,100,VALID,-0.101885,VALID,19.6132,VALID,337,VALID,0,
2008-11-01, 01:21:00,VALID,917.854,VALID,0,VALID,100,VALID,-0.101885,VALID,19.6164,VALID,337,VALID,0,
2008-11-01, 01:22:00,VALID,917.863,VALID,0,VALID,100,VALID,-0.101885,VALID,19.6259,VALID,337,VALID,0,
2008-11-01, 01:23:00,VALID,917.864,VALID,0,VALID,100,VALID,-0.101885,VALID,19.6362,VALID,337,VALID,0,
2008-11-01, 01:24:00,VALID,917.872,VALID,0,VALID,100,VALID,-0.0849042,VALID,19.6551,VALID,337,VALID,0,
2008-11-01, 01:25:00,VALID,917.879,VALID,0,VALID,100,VALID,-0.118866,VALID,19.6619,VALID,337,VALID,0,
2008-11-01, 01:26:00,VALID,917.882,VALID,0,VALID,100,VALID,-0.101885,VALID,19.6813,VALID,319,VALID,0,
2008-11-01, 01:27:00,VALID,917.883,VALID,0,VALID,100,VALID,-0.0679233,VALID,19.6808,VALID,313,VALID,0,
2008-11-01, 01:28:00,VALID,917.888,VALID,0,VALID,100,VALID,-0.101885,VALID,19.6948,VALID,313,VALID,0,
2008-11-01, 01:29:00,VALID,917.886,VALID,0,VALID,100,VALID,-0.101885,VALID,19.7006,VALID,313,VALID,0,
2008-11-01, 01:30:00,VALID,917.856,VALID,0,VALID,100,VALID,-0.118866,VALID,19.7203,VALID,313,VALID,0,
2008-11-01, 01:31:00,VALID,917.848,VALID,0,VALID,100,VALID,-0.0849042,VALID,19.6813,VALID,313,VALID,0,
2008-11-01, 01:32:00,VALID,917.814,VALID,0,VALID,100,VALID,-0.101885,VALID,19.6684,VALID,313,VALID,0,
2008-11-01, 01:33:00,VALID,917.785,VALID,0,VALID,100,VALID,-0.0849042,VALID,19.6911,VALID,313,VALID,0,
2008-11-01, 01:34:00,VALID,917.773,VALID,0,VALID,100,VALID,-0.0679233,VALID,19.6998,VALID,313,VALID,0,
2008-11-01, 01:35:00,VALID,917.764,VALID,0,VALID,100,VALID,0.0169808,VALID,19.712,VALID,307,VALID,0,
2008-11-01, 01:36:00,VALID,917.767,VALID,0,VALID,100,VALID,0,VALID,19.7123,VALID,239,VALID,0.0427827,
2008-11-01, 01:37:00,VALID,917.762,VALID,0,VALID,100,VALID,0,VALID,19.7155,VALID,231,VALID,0.071841,
2008-11-01, 01:38:00,VALID,917.767,VALID,0,VALID,100,VALID,-0.0169808,VALID,19.6861,VALID,227,VALID,0.267987,
2008-11-01, 01:39:00,VALID,917.767,VALID,0,VALID,100,VALID,-0.0169808,VALID,19.6501,VALID,221,VALID,0.394141,
2008-11-01, 01:40:00,VALID,917.753,VALID,0,VALID,100,VALID,0.0169808,VALID,19.6441,VALID,221,VALID,0,
2008-11-01, 01:41:00,VALID,917.742,VALID,0,VALID,100,VALID,-0.0339617,VALID,19.6177,VALID,221,VALID,0,
2008-11-01, 01:42:00,VALID,917.725,VALID,0,VALID,100,VALID,0,VALID,19.6179,VALID,221,VALID,0,
2008-11-01, 01:43:00,VALID,917.688,VALID,0,VALID,100,VALID,0,VALID,19.6145,VALID,221,VALID,0,
2008-11-01, 01:44:00,VALID,917.669,VALID,0,VALID,100,VALID,0.0169808,VALID,19.6177,VALID,221,VALID,0,
2008-11-01, 01:45:00,VALID,917.654,VALID,0,VALID,100,VALID,0,VALID,19.6402,VALID,221,VALID,0,
2008-11-01, 01:46:00,VALID,917.626,VALID,0,VALID,100,VALID,-0.0169808,VALID,19.6763,VALID,221,VALID,0,
2008-11-01, 01:47:00,VALID,917.606,VALID,0,VALID,100,VALID,0,VALID,19.6763,VALID,212,VALID,0,
2008-11-01, 01:48:00,VALID,917.587,VALID,0,VALID,100,VALID,0,VALID,19.6312,VALID,180,VALID,0,
2008-11-01, 01:49:00,VALID,917.568,VALID,0,VALID,100,VALID,-0.0509425,VALID,19.5987,VALID,149,VALID,0.761806,
2008-11-01, 01:50:00,VALID,917.549,VALID,0,VALID,100,VALID,-0.0339617,VALID,19.5795,VALID,145,VALID,0.989769,
2008-11-01, 01:51:00,VALID,917.536,VALID,0,VALID,100,VALID,-0.0169808,VALID,19.5431,VALID,146,VALID,1.15454,
2008-11-01, 01:52:00,VALID,917.511,VALID,0,VALID,100,VALID,-0.0169808,VALID,19.5243,VALID,150,VALID,1.1793,
2008-11-01, 01:53:00,VALID,917.514,VALID,0,VALID,100,VALID,-0.0339617,VALID,19.5184,VALID,159,VALID,0.660714,
2008-11-01, 01:54:00,VALID,917.503,VALID,0,VALID,100,VALID,-0.0339617,VALID,19.4981,VALID,165,VALID,0.0713682,
2008-11-01, 01:55:00,VALID,917.506,VALID,0,VALID,100,VALID,-0.0339617,VALID,19.5046,VALID,165,VALID,0,
2008-11-01, 01:56:00,VALID,917.498,VALID,0,VALID,100,VALID,0,VALID,19.5144,VALID,170,VALID,0.00109012,
2008-11-01, 01:57:00,VALID,917.498,VALID,0,VALID,100,VALID,-0.0339617,VALID,19.5176,VALID,173,VALID,0,
2008-11-01, 01:58:00,VALID,917.494,VALID,0,VALID,100,VALID,0,VALID,19.5079,VALID,165,VALID,0.197409,
2008-11-01, 01:59:00,VALID,917.491,VALID,0,VALID,100,VALID,0,VALID,19.5273,VALID,164,VALID,0.0927734,
2008-11-01, 02:00:00,VALID,917.486,VALID,0,VALID,100,VALID,-0.0169808,VALID,19.5104,VALID,140,VALID,0.173018,
2008-11-01, 02:01:00,VALID,917.475,VALID,0,VALID,100,VALID,-0.0169808,VALID,19.4912,VALID,127,VALID,0.278472,
2008-11-01, 02:02:00,VALID,917.472,VALID,0,VALID,100,VALID,0.0339617,VALID,19.4779,VALID,131,VALID,0.0779433,
2008-11-01, 02:03:00,VALID,917.463,VALID,0,VALID,100,VALID,-0.0169808,VALID,19.455,VALID,125,VALID,0.285689,
2008-11-01, 02:04:00,VALID,917.464,VALID,0,VALID,100,VALID,-0.0169808,VALID,19.456,VALID,124,VALID,0.322493,
2008-11-01, 02:05:00,VALID,917.462,VALID,0,VALID,100,VALID,-0.0849042,VALID,19.4602,VALID,109,VALID,0.224805,
2008-11-01, 02:06:00,VALID,917.464,VALID,0,VALID,100,VALID,-0.0849042,VALID,19.4442,VALID,107,VALID,0.00599564,
2008-11-01, 02:07:00,VALID,917.455,VALID,0,VALID,100,VALID,-0.118866,VALID,19.4347,VALID,100,VALID,0,
2008-11-01, 02:08:00,VALID,917.446,VALID,0,VALID,100,VALID,-0.118866,VALID,19.4248,VALID,101,VALID,0.0490057,
2008-11-01, 02:09:00,VALID,917.447,VALID,0,VALID,100,VALID,-0.118866,VALID,19.4215,VALID,111,VALID,0.0534446,
2008-11-01, 02:10:00,VALID,917.422,VALID,0,VALID,100,VALID,-0.118866,VALID,19.412,VALID,119,VALID,0,
2008-11-01, 02:11:00,VALID,917.411,VALID,0,VALID,100,VALID,-0.101885,VALID,19.412,VALID,125,VALID,0,
2008-11-01, 02:12:00,VALID,917.383,VALID,0,VALID,100,VALID,-0.101885,VALID,19.4088,VALID,127,VALID,0.364462,
2008-11-01, 02:13:00,VALID,917.369,VALID,0,VALID,100,VALID,-0.101885,VALID,19.4088,VALID,107,VALID,0.557165,
2008-11-01, 02:14:00,VALID,917.333,VALID,0,VALID,100,VALID,-0.118866,VALID,19.402,VALID,114,VALID,0.0793679,
2008-11-01, 02:15:00,VALID,917.319,VALID,0,VALID,100,VALID,-0.118866,VALID,19.4023,VALID,100,VALID,0.295732,
2008-11-01, 02:16:00,VALID,917.301,VALID,0,VALID,100,VALID,-0.118866,VALID,19.3986,VALID,128,VALID,0.512463,
2008-11-01, 02:17:00,VALID,917.284,VALID,0,VALID,100,VALID,-0.118866,VALID,19.4282,VALID,142,VALID,0.216654,
2008-11-01, 02:18:00,VALID,917.27,VALID,0,VALID,100,VALID,-0.118866,VALID,19.4278,VALID,144,VALID,0.566051,
2008-11-01, 02:19:00,VALID,917.262,VALID,0,VALID,100,VALID,-0.0849042,VALID,19.4402,VALID,136,VALID,0.34375,
2008-11-01, 02:20:00,VALID,917.237,VALID,0,VALID,100,VALID,-0.0169808,VALID,19.4427,VALID,146,VALID,0.737723,
2008-11-01, 02:21:00,VALID,917.225,VALID,0,VALID,100,VALID,-0.0339617,VALID,19.4462,VALID,144,VALID,0.619531,
2008-11-01, 02:22:00,VALID,917.214,VALID,0,VALID,100,VALID,-0.0339617,VALID,19.4395,VALID,155,VALID,0,
2008-11-01, 02:23:00,VALID,917.21,VALID,0,VALID,100,VALID,-0.0169808,VALID,19.4365,VALID,146,VALID,0,
2008-11-01, 02:24:00,VALID,917.194,VALID,0,VALID,100,VALID,-0.0339617,VALID,19.4365,VALID,142,VALID,0,
2008-11-01, 02:25:00,VALID,917.187,VALID,0,VALID,100,VALID,-0.0169808,VALID,19.4395,VALID,150,VALID,0,
2008-11-01, 02:26:00,VALID,917.17,VALID,0,VALID,100,VALID,-0.0339617,VALID,19.4657,VALID,156,VALID,0,
2008-11-01, 02:27:00,VALID,917.147,VALID,0,VALID,100,VALID,-0.0339617,VALID,19.4722,VALID,132,VALID,0.00571646,
2008-11-01, 02:28:00,VALID,917.137,VALID,0,VALID,100,VALID,-0.0169808,VALID,19.4814,VALID,150,VALID,0.565625,
2008-11-01, 02:29:00,VALID,917.118,VALID,0,VALID,100,VALID,-0.0679233,VALID,19.4689,VALID,144,VALID,0.100391,
2008-11-01, 02:30:00,VALID,917.101,VALID,0,VALID,100,VALID,-0.0339617,VALID,19.4752,VALID,140,VALID,0.167352,
2008-11-01, 02:31:00,VALID,917.091,VALID,0,VALID,100,VALID,-0.0169808,VALID,19.4914,VALID,157,VALID,0.0119913,
2008-11-01, 02:32:00,VALID,917.08,VALID,0,VALID,100,VALID,0,VALID,19.4754,VALID,159,VALID,0.279576,
2008-11-01, 02:33:00,VALID,917.073,VALID,0,VALID,100,VALID,-0.0169808,VALID,19.4689,VALID,152,VALID,0.842361,
2008-11-01, 02:34:00,VALID,917.081,VALID,0,VALID,100,VALID,-0.0509425,VALID,19.4819,VALID,146,VALID,0.0710565,
2008-11-01, 02:35:00,VALID,917.07,VALID,0,VALID,100,VALID,-0.0169808,VALID,19.4884,VALID,143,VALID,0.388421,
2008-11-01, 02:36:00,VALID,917.063,VALID,0,VALID,100,VALID,-0.0509425,VALID,19.4722,VALID,143,VALID,0.124306,
2008-11-01, 02:37:00,VALID,917.062,VALID,0,VALID,100,VALID,-0.0509425,VALID,19.466,VALID,141,VALID,0,
2008-11-01, 02:38:00,VALID,917.047,VALID,0,VALID,100,VALID,0,VALID,19.4625,VALID,143,VALID,0.529576,
2008-11-01, 02:39:00,VALID,917.043,VALID,0,VALID,100,VALID,-0.0679233,VALID,19.4657,VALID,150,VALID,0.421113,
2008-11-01, 02:40:00,VALID,917.037,VALID,0,VALID,100,VALID,-0.0339617,VALID,19.4819,VALID,150,VALID,0.806504,
2008-11-01, 02:41:00,VALID,917.028,VALID,0,VALID,100,VALID,-0.0509425,VALID,19.4981,VALID,152,VALID,0.576308,
2008-11-01, 02:42:00,VALID,917.037,VALID,0,VALID,100,VALID,-0.0339617,VALID,19.5144,VALID,153,VALID,0.31157,
2008-11-01, 02:43:00,VALID,917.031,VALID,0,VALID,100,VALID,0,VALID,19.5333,VALID,150,VALID,0,
2008-11-01, 02:44:00,VALID,917.042,VALID,0,VALID,100,VALID,0,VALID,19.5398,VALID,143,VALID,0.00111607,
2008-11-01, 02:45:00,VALID,917.043,VALID,0,VALID,100,VALID,-0.0339617,VALID,19.5331,VALID,138,VALID,0.105741,
2008-11-01, 02:46:00,VALID,917.027,VALID,0,VALID,100,VALID,-0.0509425,VALID,19.5471,VALID,134,VALID,0.2375,
2008-11-01, 02:47:00,VALID,917.042,VALID,0,VALID,100,VALID,-0.0339617,VALID,19.5401,VALID,134,VALID,0,
2008-11-01, 02:48:00,VALID,917.056,VALID,0,VALID,100,VALID,-0.0509425,VALID,19.56,VALID,132,VALID,0,
2008-11-01, 02:49:00,VALID,917.076,VALID,0,VALID,100,VALID,-0.0679233,VALID,19.5698,VALID,114,VALID,0,
2008-11-01, 02:50:00,VALID,917.065,VALID,0,VALID,100,VALID,-0.0679233,VALID,19.599,VALID,114,VALID,0,
2008-11-01, 02:51:00,VALID,917.072,VALID,0,VALID,100,VALID,-0.0339617,VALID,19.576,VALID,126,VALID,0,
2008-11-01, 02:52:00,VALID,917.052,VALID,0,VALID,100,VALID,-0.0679233,VALID,19.5595,VALID,133,VALID,0,
2008-11-01, 02:53:00,VALID,917.066,VALID,0,VALID,100,VALID,-0.0339617,VALID,19.5565,VALID,112,VALID,0.0251524,
2008-11-01, 02:54:00,VALID,917.075,VALID,0,VALID,100,VALID,-0.0679233,VALID,19.573,VALID,70,VALID,0.053125,
2008-11-01, 02:55:00,VALID,917.085,VALID,0,VALID,100,VALID,-0.0169808,VALID,19.5955,VALID,64,VALID,0,
2008-11-01, 02:56:00,VALID,917.065,VALID,0,VALID,100,VALID,0,VALID,19.6152,VALID,68,VALID,0.127858,
2008-11-01, 02:57:00,VALID,917.052,VALID,0,VALID,100,VALID,-0.0169808,VALID,19.5922,VALID,81,VALID,0,
2008-11-01, 02:58:00,VALID,917.039,VALID,0,VALID,100,VALID,0,VALID,19.5725,VALID,100,VALID,0,
2008-11-01, 02:59:00,VALID,917.035,VALID,0,VALID,100,VALID,-0.0339617,VALID,19.5695,VALID,100,VALID,0,
2008-11-01, 03:00:00,VALID,917.041,VALID,0,VALID,100,VALID,0,VALID,19.559,VALID,100,VALID,0,
2008-11-01, 03:01:00,VALID,917.042,VALID,0,VALID,100,VALID,-0.0339617,VALID,19.5723,VALID,100,VALID,0,
2008-11-01, 03:02:00,VALID,917.021,VALID,0,VALID,100,VALID,0,VALID,19.5985,VALID,349,VALID,0,
2008-11-01, 03:03:00,VALID,917.012,VALID,0,VALID,100,VALID,-0.0169808,VALID,19.6217,VALID,304,VALID,0,
2008-11-01, 03:04:00,VALID,917.002,VALID,0,VALID,100,VALID,0,VALID,19.6209,VALID,298,VALID,0,
2008-11-01, 03:05:00,VALID,917.011,VALID,0,VALID,100,VALID,-0.0339617,VALID,19.6247,VALID,243,VALID,0,
2008-11-01, 03:06:00,VALID,917.027,VALID,0,VALID,100,VALID,-0.0509425,VALID,19.6441,VALID,243,VALID,0,
2008-11-01, 03:07:00,VALID,917.045,VALID,0,VALID,100,VALID,-0.0169808,VALID,19.6439,VALID,243,VALID,0,
2008-11-01, 03:08:00,VALID,917.054,VALID,0,VALID,100,VALID,0,VALID,19.6377,VALID,243,VALID,0,
2008-11-01, 03:09:00,VALID,917.063,VALID,0,VALID,100,VALID,-0.0169808,VALID,19.6147,VALID,235,VALID,0,
2008-11-01, 03:10:00,VALID,917.067,VALID,0,VALID,100,VALID,-0.0339617,VALID,19.5987,VALID,181,VALID,0,
2008-11-01, 03:11:00,VALID,917.062,VALID,0,VALID,100,VALID,-0.0339617,VALID,19.589,VALID,172,VALID,0,
2008-11-01, 03:12:00,VALID,917.064,VALID,0,VALID,100,VALID,-0.0339617,VALID,19.5857,VALID,171,VALID,0,
2008-11-01, 03:13:00,VALID,917.074,VALID,0,VALID,100,VALID,-0.0679233,VALID,19.5825,VALID,171,VALID,0,
2008-11-01, 03:14:00,VALID,917.086,VALID,0,VALID,100,VALID,-0.0679233,VALID,19.573,VALID,171,VALID,0,
2008-11-01, 03:15:00,VALID,917.102,VALID,0,VALID,100,VALID,-0.0169808,VALID,19.566,VALID,171,VALID,0,
2008-11-01, 03:16:00,VALID,917.11,VALID,0,VALID,100,VALID,0,VALID,19.563,VALID,171,VALID,0,
2008-11-01, 03:17:00,VALID,917.123,VALID,0,VALID,100,VALID,-0.0169808,VALID,19.5528,VALID,171,VALID,0,
2008-11-01, 03:18:00,VALID,917.147,VALID,0,VALID,100,VALID,0,VALID,19.5725,VALID,171,VALID,0,
2008-11-01, 03:19:00,VALID,917.162,VALID,0,VALID,100,VALID,-0.0169808,VALID,19.563,VALID,148,VALID,0,
2008-11-01, 03:20:00,VALID,917.181,VALID,0,VALID,100,VALID,0,VALID,19.5398,VALID,83,VALID,0,
2008-11-01, 03:21:00,VALID,917.204,VALID,0,VALID,100,VALID,-0.0509425,VALID,19.5273,VALID,83,VALID,0,
2008-11-01, 03:22:00,VALID,917.229,VALID,0,VALID,100,VALID,-0.0509425,VALID,19.5079,VALID,83,VALID,0,
2008-11-01, 03:23:00,VALID,917.248,VALID,0,VALID,100,VALID,-0.0169808,VALID,19.4914,VALID,77,VALID,0,
2008-11-01, 03:24:00,VALID,917.281,VALID,0,VALID,100,VALID,-0.0169808,VALID,19.4819,VALID,75,VALID,0,
2008-11-01, 03:25:00,VALID,917.301,VALID,0,VALID,100,VALID,0,VALID,19.465,VALID,75,VALID,0,
2008-11-01, 03:26:00,VALID,917.332,VALID,0,VALID,100,VALID,0.0169808,VALID,19.462,VALID,75,VALID,0,
2008-11-01, 03:27:00,VALID,917.35,VALID,0,VALID,100,VALID,-0.0169808,VALID,19.459,VALID,75,VALID,0,
2008-11-01, 03:28:00,VALID,917.361,VALID,0,VALID,100,VALID,0,VALID,19.4617,VALID,75,VALID,0,
2008-11-01, 03:29:00,VALID,917.333,VALID,0,VALID,100,VALID,-0.0169808,VALID,19.4655,VALID,75,VALID,0,
2008-11-01, 03:30:00,VALID,917.316,VALID,0,VALID,100,VALID,-0.0169808,VALID,19.4689,VALID,75,VALID,0,
2008-11-01, 03:31:00,VALID,917.298,VALID,0,VALID,100,VALID,0,VALID,19.4814,VALID,75,VALID,0,
2008-11-01, 03:32:00,VALID,917.265,VALID,0,VALID,100,VALID,-0.0169808,VALID,19.5041,VALID,75,VALID,0,
2008-11-01, 03:33:00,VALID,917.236,VALID,0,VALID,100,VALID,-0.0339617,VALID,19.5174,VALID,75,VALID,0,
2008-11-01, 03:34:00,VALID,917.217,VALID,0,VALID,100,VALID,-0.0169808,VALID,19.5368,VALID,75,VALID,0,
2008-11-01, 03:35:00,VALID,917.198,VALID,0,VALID,100,VALID,-0.0339617,VALID,19.5565,VALID,75,VALID,0,
2008-11-01, 03:36:00,VALID,917.184,VALID,0,VALID,100,VALID,-0.0509425,VALID,19.5628,VALID,75,VALID,0,
2008-11-01, 03:37:00,VALID,917.183,VALID,0,VALID,100,VALID,-0.0169808,VALID,19.5793,VALID,75,VALID,0,
2008-11-01, 03:38:00,VALID,917.18,VALID,0,VALID,100,VALID,-0.0509425,VALID,19.5882,VALID,75,VALID,0,
2008-11-01, 03:39:00,VALID,917.2,VALID,0,VALID,100,VALID,-0.0169808,VALID,19.6344,VALID,51,VALID,0,
2008-11-01, 03:40:00,VALID,917.201,VALID,0,VALID,100,VALID,-0.0169808,VALID,19.6604,VALID,352,VALID,0,
2008-11-01, 03:41:00,VALID,917.177,VALID,0,VALID,100,VALID,0,VALID,19.6407,VALID,344,VALID,0,
2008-11-01, 03:42:00,VALID,917.161,VALID,0,VALID,100,VALID,-0.0169808,VALID,19.6147,VALID,344,VALID,0,
2008-11-01, 03:43:00,VALID,917.162,VALID,0,VALID,100,VALID,-0.0339617,VALID,19.608,VALID,344,VALID,0,
2008-11-01, 03:44:00,VALID,917.183,VALID,0,VALID,100,VALID,0,VALID,19.5947,VALID,343,VALID,0,
2008-11-01, 03:45:00,VALID,917.205,VALID,0,VALID,100,VALID,0,VALID,19.5823,VALID,319,VALID,0,
2008-11-01, 03:46:00,VALID,917.217,VALID,0,VALID,100,VALID,-0.0509425,VALID,19.5793,VALID,316,VALID,0,
2008-11-01, 03:47:00,VALID,917.23,VALID,0,VALID,100,VALID,0,VALID,19.5623,VALID,13,VALID,0,